SCP
0 0 0 0 0 0 0 0 0 0 0 0 0 0 0 0 0 0 0 0 0 0 0 0 0 0 0 0 0 0 0 0 0 0 0 0 0 0 0 0 0 0 0
0 0 0 0 0 0 0 0 0 0 0 0 0 0 0 0 0 0 0 0 0 0 0 0 0 0 0 0 0 0 0 0 0 0 0 0 0 0 0 0 0 0 0
0 0 0 0 0 0 0 0 1 1 1 0 0 0 0 0 0 0 0 0 0 0 0 0 0 0 0 0 0 0 0 0 0 0 0 0 0 0 0 0 0 0 0
0 0 0 0 0 0 0 1 1 1 1 1 0 0 0 0 0 0 0 0 0 0 0 0 0 0 0 0 0 0 0 0 0 0 0 0 0 0 0 0 0 0 0
0 0 0 0 0 0 0 1 1 1 1 0 0 0 0 0 0 0 0 0 0 0 0 0 0 0 0 0 0 0 0 0 0 0 0 0 0 0 0 0 0 0 0
0 0 0 0 0 0 0 1 1 1 1 1 0 0 0 0 0 0 0 0 0 0 0 0 0 0 0 0 0 0 0 0 0 0 0 0 0 0 0 0 0 0 0
0 0 0 0 0 0 0 1 1 1 1 1 0 0 0 0 0 0 0 0 0 0 0 0 0 0 0 0 0 0 0 0 0 0 0 0 0 0 0 0 0 0 0
0 0 0 0 0 0 0 1 1 1 1 1 1 0 0 0 0 0 0 0 0 0 0 0 0 0 0 0 0 0 0 0 0 0 0 0 0 0 0 0 0 0 0
0 0 0 0 0 0 0 1 1 1 1 1 0 0 0 0 0 0 0 0 0 0 0 0 0 0 0 0 0 0 0 0 0 0 0 0 0 0 0 0 0 0 0
0 0 0 0 0 0 0 1 1 1 1 0 0 0 0 0 0 0 0 0 0 0 0 0 0 0 0 0 0 0 0 0 0 0 0 0 0 0 0 0 0 0 0
1 1 1 1 1 0 0 1 1 1 0 0 0 0 0 0 0 0 0 0 0 0 0 0 0 0 0 0 0 0 0 0 0 0 0 0 0 0 0 0 0 0 0
1 1 1 1 1 1 1 1 1 0 0 0 0 0 0 0 0 0 0 0 0 0 0 0 0 0 0 0 0 0 0 0 0 0 0 0 0 0 0 0 0 0 0
1 1 1 1 1 1 1 1 1 1 0 0 0 0 0 0 0 0 0 0 0 0 0 0 0 0 0 0 0 0 0 0 0 0 0 0 0 0 0 0 0 0 0
1 1 1 1 1 1 1 1 1 1 1 1 1 0 0 0 0 0 0 0 0 0 0 0 0 0 0 0 0 0 0 0 0 0 0 0 0 0 0 0 0 0 0
1 1 1 1 1 1 1 1 1 1 1 1 1 1 0 0 0 0 0 0 0 0 0 0 0 0 0 0 0 0 0 0 0 0 0 0 0 0 0 0 0 0 0
1 1 1 1 1 1 1 1 1 1 1 1 1 1 0 0 0 0 0 0 0 0 0 0 0 0 0 0 0 0 0 0 0 0 0 0 0 0 0 0 0 0 0
1 1 1 1 1 1 1 1 1 1 1 1 1 1 0 0 0 0 1 1 0 0 1 0 0 1 1 1 1 0 0 0 0 0 0 0 0 0 0 0 0 0 0
1 1 1 1 1 1 1 1 1 1 1 1 1 1 0 0 0 0 1 1 0 0 0 0 1 1 1 1 1 1 1 0 0 0 0 0 0 0 0 0 0 0 0
1 1 1 1 1 1 1 1 1 1 1 1 0 0 0 0 0 0 0 0 0 0 0 0 0 1 1 1 0 0 0 1 0 0 0 0 0 0 0 0 0 0 0
1 1 1 1 1 1 1 1 1 1 0 0 0 0 0 0 0 0 0 0 0 0 0 0 0 0 1 0 0 0 0 0 0 0 0 0 0 0 0 0 0 0 0
1 1 1 1 1 1 1 1 1 1 0 0 0 0 0 0 0 0 0 0 0 0 0 0 0 0 0 0 0 0 0 0 0 0 0 0 0 0 0 0 0 0 0
1 1 1 1 1 1 1 1 1 1 0 0 0 0 0 0 0 0 0 0 0 0 0 0 0 0 0 0 0 0 0 0 0 0 0 0 0 0 0 0 0 0 0
1 1 1 1 1 1 1 1 1 1 1 0 0 0 0 0 0 0 0 0 0 0 0 0 0 0 0 0 0 0 0 0 0 0 0 0 0 0 0 0 0 0 0
1 1 1 1 1 1 1 1 1 1 0 0 0 0 0 0 0 0 0 0 0 0 0 0 0 0 0 0 0 0 0 0 0 0 0 0 0 0 0 0 0 0 0
1 1 1 1 1 1 1 1 1 1 0 0 0 0 0 0 0 0 0 0 0 0 0 0 0 0 0 0 0 0 0 0 0 0 0 0 0 0 0 0 0 0 0
1 1 1 1 1 1 1 1 1 1 0 0 0 0 0 0 0 0 0 0 0 0 0 0 0 0 0 0 0 0 0 0 0 0 0 0 0 0 0 0 0 0 0
Wind_Speed
12 15 15 11 10 11 12 13 14 15 15 15 15 14 14 13 12 11 10 9 9 9 8 8 8 8 8 8 8 8 8 8 8 8 8 8 8 8 7 7 6 9 11
15 16 15 12 11 12 13 14 14 15 15 14 14 14 13 13 12 11 10 9 9 8 8 8 8 8 8 8 7 7 8 8 7 7 7 8 8 7 6 4 3 9 10
16 17 16 12 12 13 14 14 14 14 14 14 14 13 12 12 11 10 10 9 8 8 8 8 8 8 8 7 7 7 7 7 6 5 7 7 9 7 6 5 7 9 8
16 16 15 14 12 13 14 14 14 14 14 14 13 13 12 11 10 10 9 8 8 7 7 7 7 7 7 7 6 6 6 5 5 6 7 4 7 9 6 6 7 7 7
15 15 15 15 13 13 14 14 14 14 14 13 13 12 11 11 10 9 9 8 8 7 7 7 7 6 6 6 5 5 5 4 4 9 2 3 4 9 6 6 7 7 6
15 15 17 14 14 13 13 14 14 14 13 13 12 12 11 10 9 9 9 8 8 7 6 6 6 6 5 5 4 4 4 5 8 5 2 2 5 8 6 6 6 6 6
14 14 17 13 13 13 13 13 13 13 12 12 11 10 10 9 9 8 8 8 7 7 6 6 6 5 5 4 4 3 4 5 9 3 2 3 5 9 6 6 6 6 6
13 14 15 14 13 13 12 12 12 11 11 10 10 9 9 8 8 8 7 7 7 6 6 5 5 5 4 3 3 2 3 7 8 4 3 3 8 7 6 6 6 7 7
13 13 14 14 13 12 11 11 10 10 9 9 9 8 8 8 7 7 7 6 6 6 6 6 5 5 4 3 3 3 3 6 9 3 4 2 9 6 7 7 7 8 8
11 11 11 12 12 12 12 11 10 9 9 8 8 8 7 7 7 6 8 7 6 6 6 6 5 5 5 4 3 3 4 7 9 4 3 4 8 6 7 8 9 9 9
10 9 10 10 10 10 10 11 11 9 8 8 8 7 7 7 7 7 5 6 6 5 6 6 6 6 6 7 6 6 7 7 6 3 3 7 6 7 8 8 9 10 10
12 10 9 9 9 9 7 8 7 7 7 7 6 7 6 4 3 3 7 5 4 5 6 6 6 8 9 7 8 9 6 7 5 4 2 7 5 7 8 8 9 10 10
11 10 9 8 8 7 6 6 4 4 5 5 5 5 4 3 3 3 3 5 6 7 7 6 7 6 6 4 4 5 5 5 4 3 2 6 4 6 7 8 9 9 10
10 10 9 8 7 7 6 5 5 4 4 4 5 5 4 3 3 2 2 2 3 3 3 4 3 4 5 5 6 6 5 5 4 3 1 5 4 6 8 8 9 9 8
9 9 9 8 7 6 5 4 4 4 4 4 3 3 3 3 3 3 2 2 4 3 3 4 4 4 5 5 6 6 6 5 5 4 2 5 4 5 6 7 8 9 9
9 8 7 8 7 6 5 4 3 3 3 3 3 3 4 3 2 3 3 3 3 3 3 3 4 4 4 4 5 5 5 5 4 4 5 3 5 5 5 6 6 7 8
8 7 7 7 6 6 5 5 3 3 3 3 2 3 3 3 3 3 3 3 3 3 3 3 4 4 4 5 5 5 4 4 4 4 5 5 4 5 4 4 4 4 5
7 7 6 6 6 5 4 3 2 2 2 2 2 2 2 2 3 3 3 2 2 3 3 3 3 4 4 4 4 4 3 3 4 5 5 5 4 3 4 4 3 3 4
6 7 7 6 7 6 5 4 3 2 1 1 1 1 1 1 2 2 2 2 3 3 2 3 2 3 4 4 4 4 4 4 4 5 5 5 4 3 3 4 5 4 4
7 7 7 7 6 6 5 4 3 3 2 1 1 1 1 0 1 2 1 1 3 2 2 2 3 3 3 3 4 3 3 3 3 3 4 4 3 4 4 4 4 4 4
7 7 7 7 6 5 4 5 4 4 3 2 2 1 1 0 0 2 2 1 2 2 3 3 4 4 3 2 4 3 3 4 3 2 3 3 3 3 2 3 2 2 3
7 7 7 7 7 6 4 3 2 2 2 2 1 2 1 0 1 1 1 2 2 2 2 3 3 4 3 3 3 3 3 4 4 3 3 3 2 2 2 2 1 1 1
7 7 6 7 6 5 5 4 3 3 3 3 3 2 1 0 1 2 2 2 2 3 2 3 4 4 4 3 3 3 3 3 1 2 2 2 2 1 1 1 1 1 2
6 6 5 5 5 5 5 5 5 4 3 2 2 1 1 1 0 1 1 2 3 3 3 4 3 4 5 4 3 3 4 3 3 2 3 2 2 2 1 1 1 1 1
7 6 6 6 5 4 4 4 4 3 2 2 2 2 1 1 0 1 2 2 3 3 3 4 3 4 4 5 4 3 4 3 4 4 3 2 2 2 1 2 1 1 1
7 7 7 7 6 5 4 4 3 3 3 2 2 1 1 1 1 0 2 2 3 3 3 3 4 4 4 5 5 4 4 4 3 3 4 4 3 2 2 1 2 1 1
Wind_Direction
149 137 138 145 141 138 137 137 137 140 141 143 144 144 143 141 140 137 134 131 127 123 120 119 119 119 118 119 118 116 116 116 116 117 119 118 117 119 122 131 164 120 111
142 137 141 145 142 139 138 137 135 137 139 141 142 143 144 143 142 141 139 136 132 128 126 124 122 121 122 122 122 122 122 123 125 130 138 139 130 126 128 129 21 97 121
140 138 147 146 145 141 138 136 135 136 138 139 141 142 143 143 143 143 141 138 136 133 131 130 127 125 125 126 127 127 127 129 134 152 193 172 133 135 137 126 100 113 125
141 143 148 144 147 144 140 138 137 139 140 139 141 143 144 146 146 145 144 142 139 137 136 134 133 130 132 133 134 135 135 136 148 201 214 142 133 132 147 142 135 135 134
144 145 137 149 148 146 144 142 142 142 142 142 143 144 146 147 148 148 148 146 145 143 143 141 138 136 139 142 142 145 150 159 186 236 187 125 119 130 152 154 152 149 147
148 144 141 155 150 148 146 145 144 144 145 145 146 147 148 148 149 151 151 151 150 150 151 147 145 144 149 154 157 165 177 192 221 219 157 179 141 138 166 169 164 161 159
148 143 143 154 152 151 150 149 148 146 146 146 148 149 150 151 152 154 155 155 156 156 156 155 154 156 160 166 177 194 211 227 252 221 197 206 123 137 177 183 176 174 177
149 145 140 150 154 154 153 151 150 149 148 147 148 149 152 155 156 158 161 162 163 163 163 164 168 169 171 181 196 214 238 259 241 230 219 196 115 154 190 194 191 190 192
153 146 149 155 157 157 154 152 150 148 148 149 150 151 155 161 165 167 170 173 176 176 178 181 186 185 186 198 217 236 253 266 271 238 228 178 129 175 201 202 203 200 198
154 151 154 159 158 162 160 155 154 153 153 154 156 159 162 167 175 178 189 178 185 187 191 194 198 200 203 210 224 239 250 253 251 234 227 139 141 195 214 208 207 207 205
157 158 159 159 161 166 160 153 162 161 162 167 166 167 187 193 184 185 182 160 191 198 205 208 211 214 219 209 216 231 242 247 244 252 241 112 161 212 221 214 210 211 209
166 166 167 166 165 170 159 158 171 175 168 190 176 179 201 195 206 207 124 166 201 211 214 215 222 222 231 220 197 211 238 244 258 243 176 126 188 223 227 222 218 213 211
168 170 171 168 170 171 166 168 171 175 168 188 182 191 204 200 206 215 183 180 203 213 220 199 214 229 233 244 253 234 251 263 260 262 158 137 205 231 233 226 223 220 215
173 174 171 170 172 181 177 173 179 184 177 184 176 204 201 212 225 227 226 229 226 224 228 236 238 237 250 255 257 257 253 253 261 264 159 145 215 233 233 228 225 224 219
178 177 173 175 172 179 180 190 184 186 182 179 180 193 219 222 229 229 239 250 256 249 234 242 251 251 247 244 251 251 252 256 265 268 231 166 207 232 233 232 227 224 222
180 180 174 177 176 179 180 188 184 185 175 186 190 195 219 236 248 255 244 245 256 263 269 258 250 250 251 255 254 253 260 262 258 266 274 206 191 214 233 234 229 226 226
181 179 177 179 175 180 184 187 184 185 184 193 194 201 221 237 242 250 257 249 257 261 255 255 257 256 250 246 247 250 249 261 264 255 264 270 235 193 206 226 226 214 220
181 174 175 177 165 174 181 182 174 181 186 193 199 204 218 240 254 262 269 269 278 267 263 265 262 259 258 259 254 254 250 244 247 243 247 248 258 248 197 191 205 202 205
174 170 170 169 167 168 162 165 168 158 189 187 187 196 194 241 262 268 275 295 277 271 273 278 279 276 265 262 257 242 245 240 238 241 247 253 252 257 254 171 178 184 197
178 176 173 169 166 163 161 161 162 163 174 188 176 139 160 206 286 292 264 284 280 273 275 282 278 266 269 264 265 259 250 244 238 241 248 244 235 238 246 243 201 179 178
181 178 176 175 167 169 170 175 173 177 175 176 165 140 180 261 309 291 306 298 285 289 292 286 277 258 254 257 257 252 235 224 214 221 242 251 237 233 241 242 242 227 177
180 178 177 175 173 180 175 175 175 166 172 158 148 138 163 247 288 270 306 288 293 282 273 288 282 287 276 254 267 268 246 215 198 206 212 210 225 229 228 235 249 232 247
171 173 172 166 166 171 163 159 160 161 167 165 170 152 129 222 275 312 299 305 301 286 292 297 292 285 283 272 267 273 273 265 217 187 204 204 203 218 230 246 234 218 215
166 158 154 153 159 157 160 169 181 185 177 157 164 134 163 179 306 324 313 304 296 294 297 280 300 293 279 274 261 259 276 297 265 235 205 193 196 225 243 253 231 213 218
164 155 147 144 140 143 150 160 176 166 150 146 152 135 204 147 221 299 303 302 294 291 300 301 297 290 285 282 276 261 255 249 248 255 250 214 213 216 217 237 238 247 258
159 154 150 145 141 143 148 151 155 146 149 150 165 155 213 187 202 303 300 306 294 302 300 291 282 275 281 283 275 265 262 263 252 252 258 241 223 206 217 228 226 218 230